Time,TemperatureF,DewpointF,PressureIn,WindDirection,WindDirectionDegrees,WindSpeedMPH,WindSpeedGustMPH,Humidity,HourlyPrecipIn,Conditions,Clouds,dailyrainin,SoftwareType,DateUTC
2013-07-12 00:03:00,72.5,73.0,29.91,NW,304,0.0,0.0,100,0.00,,,0.00,weatherlink.com 1.10,2013-07-12 05:03:00,
2013-07-12 00:18:00,72.5,73.0,29.92,NW,304,0.0,0.0,100,0.00,,,0.00,weatherlink.com 1.10,2013-07-12 05:18:00,
2013-07-12 00:33:00,72.5,73.0,29.92,NW,304,0.0,0.0,100,0.00,,,0.00,weatherlink.com 1.10,2013-07-12 05:33:00,
2013-07-12 00:48:00,72.5,73.0,29.91,NW,304,0.0,0.0,100,0.00,,,0.00,weatherlink.com 1.10,2013-07-12 05:48:00,
2013-07-12 01:03:00,72.3,72.0,29.90,NW,304,0.0,0.0,100,0.00,,,0.00,weatherlink.com 1.10,2013-07-12 06:03:00,
2013-07-12 01:18:00,71.9,72.0,29.90,NW,304,0.0,0.0,100,0.00,,,0.00,weatherlink.com 1.10,2013-07-12 06:18:00,
2013-07-12 01:33:00,71.9,72.0,29.89,NW,304,0.0,0.0,100,0.00,,,0.00,weatherlink.com 1.10,2013-07-12 06:33:00,
2013-07-12 01:48:00,71.6,72.0,29.88,NW,304,0.0,0.0,100,0.00,,,0.00,weatherlink.com 1.10,2013-07-12 06:48:00,
2013-07-12 02:03:00,71.3,71.0,29.88,NW,304,0.0,0.0,100,0.00,,,0.00,weatherlink.com 1.10,2013-07-12 07:03:00,
2013-07-12 02:18:00,71.0,71.0,29.88,NW,304,0.0,0.0,100,0.00,,,0.00,weatherlink.com 1.10,2013-07-12 07:18:00,
2013-07-12 02:33:00,71.0,71.0,29.88,NW,304,0.0,0.0,100,0.00,,,0.00,weatherlink.com 1.10,2013-07-12 07:33:00,
2013-07-12 02:48:00,70.9,71.0,29.88,NW,304,0.0,0.0,100,0.00,,,0.00,weatherlink.com 1.10,2013-07-12 07:48:00,
2013-07-12 03:03:00,70.7,71.0,29.88,NW,304,0.0,0.0,100,0.00,,,0.00,weatherlink.com 1.10,2013-07-12 08:03:00,
2013-07-12 03:18:00,70.8,71.0,29.88,NW,304,0.0,0.0,100,0.00,,,0.00,weatherlink.com 1.10,2013-07-12 08:18:00,
2013-07-12 03:33:00,71.0,71.0,29.88,NW,316,0.0,0.0,100,0.00,,,0.00,weatherlink.com 1.10,2013-07-12 08:33:00,
2013-07-12 03:48:00,71.0,71.0,29.88,WSW,248,0.0,0.0,100,0.00,,,0.00,weatherlink.com 1.10,2013-07-12 08:48:00,
2013-07-12 04:03:00,71.1,71.0,29.88,WSW,253,0.0,0.0,100,0.00,,,0.00,weatherlink.com 1.10,2013-07-12 09:03:00,
2013-07-12 04:18:00,71.1,71.0,29.88,WSW,238,0.0,1.0,100,0.00,,,0.00,weatherlink.com 1.10,2013-07-12 09:18:00,
2013-07-12 04:33:00,71.2,71.0,29.89,WSW,250,0.0,0.0,100,0.00,,,0.00,weatherlink.com 1.10,2013-07-12 09:33:00,
2013-07-12 04:48:00,71.1,71.0,29.89,West,277,0.0,0.0,100,0.00,,,0.00,weatherlink.com 1.10,2013-07-12 09:48:00,
2013-07-12 05:03:00,71.1,71.0,29.89,WSW,257,0.0,0.0,100,0.00,,,0.00,weatherlink.com 1.10,2013-07-12 10:03:00,
2013-07-12 05:18:00,71.1,71.0,29.89,West,266,0.0,2.0,100,0.00,,,0.00,weatherlink.com 1.10,2013-07-12 10:18:00,
2013-07-12 05:33:00,71.0,71.0,29.90,West,266,0.0,0.0,100,0.00,,,0.00,weatherlink.com 1.10,2013-07-12 10:33:00,
2013-07-12 05:48:00,71.0,71.0,29.90,South,177,0.0,5.0,100,0.00,,,0.00,weatherlink.com 1.10,2013-07-12 10:48:00,
2013-07-12 06:03:00,71.0,71.0,29.90,NNW,334,0.0,1.0,100,0.00,,,0.00,weatherlink.com 1.10,2013-07-12 11:03:00,
2013-07-12 06:18:00,70.9,71.0,29.90,North,9,0.0,0.0,100,0.00,,,0.00,weatherlink.com 1.10,2013-07-12 11:18:00,
2013-07-12 06:33:00,70.8,71.0,29.91,NNW,336,0.0,1.0,100,0.01,,,0.01,weatherlink.com 1.10,2013-07-12 11:33:00,
2013-07-12 06:49:00,71.4,71.0,29.91,WNW,295,0.0,0.0,100,0.01,,,0.01,weatherlink.com 1.10,2013-07-12 11:49:00,
2013-07-12 07:04:00,72.2,72.0,29.91,NE,37,0.0,0.0,100,0.01,,,0.01,weatherlink.com 1.10,2013-07-12 12:04:00,
2013-07-12 07:19:00,73.1,73.0,29.91,ENE,69,0.0,0.0,100,0.01,,,0.01,weatherlink.com 1.10,2013-07-12 12:19:00,
2013-07-12 07:34:00,73.6,74.0,29.91,NNE,30,0.0,0.0,100,0.00,,,0.01,weatherlink.com 1.10,2013-07-12 12:34:00,
2013-07-12 07:49:00,74.1,74.0,29.91,WNW,286,0.0,0.0,99,0.00,,,0.01,weatherlink.com 1.10,2013-07-12 12:49:00,
2013-07-12 08:04:00,75.5,75.0,29.91,North,9,0.0,0.0,97,0.00,,,0.01,weatherlink.com 1.10,2013-07-12 13:04:00,
2013-07-12 08:19:00,77.5,75.0,29.92,WNW,283,0.0,2.0,92,0.00,,,0.01,weatherlink.com 1.10,2013-07-12 13:19:00,
2013-07-12 08:34:00,79.2,75.0,29.92,NE,50,0.0,2.0,88,0.00,,,0.01,weatherlink.com 1.10,2013-07-12 13:34:00,
2013-07-12 08:49:00,80.5,75.0,29.91,ENE,60,3.0,3.0,84,0.00,,,0.01,weatherlink.com 1.10,2013-07-12 13:49:00,
2013-07-12 09:04:00,82.0,76.0,29.91,ENE,60,2.0,2.0,83,0.00,,,0.01,weatherlink.com 1.10,2013-07-12 14:04:00,
2013-07-12 09:19:00,82.7,76.0,29.91,NE,39,0.0,4.0,81,0.00,,,0.01,weatherlink.com 1.10,2013-07-12 14:19:00,
2013-07-12 09:34:00,83.6,76.0,29.91,NNE,14,3.0,6.0,77,0.00,,,0.01,weatherlink.com 1.10,2013-07-12 14:34:00,
2013-07-12 09:49:00,84.9,77.0,29.90,West,275,0.0,3.0,77,0.00,,,0.01,weatherlink.com 1.10,2013-07-12 14:49:00,
2013-07-12 10:04:00,85.3,76.0,29.90,WNW,283,0.0,4.0,73,0.00,,,0.01,weatherlink.com 1.10,2013-07-12 15:04:00,
2013-07-12 10:19:00,86.8,77.0,29.90,NNW,347,3.0,5.0,72,0.00,,,0.01,weatherlink.com 1.10,2013-07-12 15:19:00,
2013-07-12 10:34:00,87.3,77.0,29.89,ENE,66,0.0,5.0,71,0.00,,,0.01,weatherlink.com 1.10,2013-07-12 15:34:00,
2013-07-12 10:49:00,87.7,77.0,29.89,WSW,257,1.0,5.0,70,0.00,,,0.01,weatherlink.com 1.10,2013-07-12 15:49:00,
2013-07-12 11:04:00,88.5,78.0,29.89,NNW,335,0.0,3.0,70,0.00,,,0.01,weatherlink.com 1.10,2013-07-12 16:04:00,
2013-07-12 11:19:00,88.6,76.0,29.89,NE,51,2.0,4.0,67,0.00,,,0.01,weatherlink.com 1.10,2013-07-12 16:19:00,
2013-07-12 11:34:00,89.0,77.0,29.89,West,274,0.0,4.0,67,0.00,,,0.01,weatherlink.com 1.10,2013-07-12 16:34:00,
2013-07-12 11:49:00,90.1,78.0,29.89,North,6,0.0,6.0,67,0.00,,,0.01,weatherlink.com 1.10,2013-07-12 16:49:00,
2013-07-12 12:04:00,90.5,78.0,29.89,North,354,1.0,4.0,66,0.00,,,0.01,weatherlink.com 1.10,2013-07-12 17:04:00,
2013-07-12 12:34:00,90.8,77.0,29.88,SW,223,0.0,4.0,64,0.00,,,0.01,weatherlink.com 1.10,2013-07-12 17:34:00,
2013-07-12 12:49:00,90.2,77.0,29.88,East,89,4.0,5.0,65,0.00,,,0.01,weatherlink.com 1.10,2013-07-12 17:49:00,
2013-07-12 13:05:00,90.2,78.0,29.87,NE,44,2.0,5.0,68,0.00,,,0.01,weatherlink.com 1.10,2013-07-12 18:05:00,
2013-07-12 13:20:00,90.5,77.0,29.87,NE,49,4.0,5.0,65,0.00,,,0.01,weatherlink.com 1.10,2013-07-12 18:20:00,
2013-07-12 13:35:00,90.2,78.0,29.87,North,11,0.0,3.0,67,0.00,,,0.01,weatherlink.com 1.10,2013-07-12 18:35:00,
2013-07-12 13:50:00,91.5,77.0,29.86,West,262,1.0,4.0,62,0.00,,,0.01,weatherlink.com 1.10,2013-07-12 18:50:00,
2013-07-12 14:05:00,92.2,78.0,29.86,SE,145,1.0,5.0,63,0.00,,,0.01,weatherlink.com 1.10,2013-07-12 19:05:00,
2013-07-12 14:20:00,91.8,79.0,29.86,ESE,117,0.0,6.0,67,0.00,,,0.01,weatherlink.com 1.10,2013-07-12 19:20:00,
2013-07-12 14:35:00,91.4,80.0,29.86,SE,131,1.0,7.0,69,0.00,,,0.01,weatherlink.com 1.10,2013-07-12 19:35:00,
2013-07-12 14:50:00,90.7,80.0,29.86,ENE,63,1.0,7.0,70,0.00,,,0.01,weatherlink.com 1.10,2013-07-12 19:50:00,
2013-07-12 15:05:00,89.2,79.0,29.85,SE,132,7.0,8.0,71,0.00,,,0.01,weatherlink.com 1.10,2013-07-12 20:05:00,
2013-07-12 15:20:00,89.5,79.0,29.84,East,82,3.0,7.0,72,0.00,,,0.01,weatherlink.com 1.10,2013-07-12 20:20:00,
2013-07-12 15:35:00,89.2,79.0,29.84,East,89,3.0,10.0,72,0.00,,,0.01,weatherlink.com 1.10,2013-07-12 20:35:00,
2013-07-12 15:50:00,88.8,78.0,29.85,SE,137,7.0,10.0,71,0.00,,,0.01,weatherlink.com 1.10,2013-07-12 20:50:00,
2013-07-12 16:05:00,89.3,80.0,29.84,SSE,156,2.0,6.0,73,0.00,,,0.01,weatherlink.com 1.10,2013-07-12 21:05:00,
2013-07-12 16:20:00,89.0,79.0,29.86,SSW,201,3.0,8.0,73,0.00,,,0.01,weatherlink.com 1.10,2013-07-12 21:20:00,
2013-07-12 16:35:00,86.3,73.0,29.88,NE,36,8.0,17.0,65,0.00,,,0.01,weatherlink.com 1.10,2013-07-12 21:35:00,
2013-07-12 16:50:00,77.7,69.0,29.88,NNE,18,7.0,14.0,75,0.00,,,0.01,weatherlink.com 1.10,2013-07-12 21:50:00,
2013-07-12 17:05:00,74.5,71.0,29.89,NW,319,3.0,5.0,88,0.05,,,0.06,weatherlink.com 1.10,2013-07-12 22:05:00,
2013-07-12 17:20:00,71.9,71.0,29.85,SW,224,0.0,4.0,95,0.12,,,0.13,weatherlink.com 1.10,2013-07-12 22:20:00,
2013-07-12 17:35:00,71.5,70.0,29.84,NE,55,0.0,0.0,96,0.13,,,0.14,weatherlink.com 1.10,2013-07-12 22:35:00,
2013-07-12 18:05:00,72.1,71.0,29.85,WNW,290,0.0,2.0,97,0.07,,,0.14,weatherlink.com 1.10,2013-07-12 23:05:00,
2013-07-12 18:20:00,71.9,71.0,29.86,WSW,245,0.0,0.0,98,0.01,,,0.14,weatherlink.com 1.10,2013-07-12 23:20:00,
2013-07-12 18:35:00,72.1,72.0,29.86,WNW,297,0.0,0.0,98,0.00,,,0.14,weatherlink.com 1.10,2013-07-12 23:35:00,
2013-07-12 18:50:00,72.2,72.0,29.86,WSW,248,0.0,0.0,98,0.00,,,0.14,weatherlink.com 1.10,2013-07-12 23:50:00,
2013-07-12 19:05:00,72.4,72.0,29.86,SW,231,0.0,0.0,98,0.00,,,0.14,weatherlink.com 1.10,2013-07-13 00:05:00,
2013-07-12 19:20:00,72.7,72.0,29.85,WSW,257,0.0,0.0,98,0.00,,,0.14,weatherlink.com 1.10,2013-07-13 00:20:00,
2013-07-12 19:35:00,72.3,71.0,29.85,West,279,0.0,0.0,97,0.00,,,0.14,weatherlink.com 1.10,2013-07-13 00:35:00,
2013-07-12 19:50:00,72.3,71.0,29.86,East,96,0.0,0.0,97,0.00,,,0.14,weatherlink.com 1.10,2013-07-13 00:50:00,
2013-07-12 20:05:00,72.4,72.0,29.87,ESE,108,0.0,0.0,97,0.00,,,0.14,weatherlink.com 1.10,2013-07-13 01:05:00,
2013-07-12 20:20:00,72.1,71.0,29.87,ESE,105,0.0,0.0,97,0.00,,,0.14,weatherlink.com 1.10,2013-07-13 01:20:00,
2013-07-12 20:35:00,71.9,71.0,29.86,ESE,105,0.0,0.0,98,0.00,,,0.14,weatherlink.com 1.10,2013-07-13 01:35:00,
2013-07-12 21:05:00,71.9,72.0,29.87,ENE,58,0.0,0.0,99,0.00,,,0.14,weatherlink.com 1.10,2013-07-13 02:05:00,
2013-07-12 21:20:00,71.7,71.0,29.87,NE,44,0.0,0.0,98,0.00,,,0.14,weatherlink.com 1.10,2013-07-13 02:20:00,
2013-07-12 21:35:00,71.6,71.0,29.88,NE,44,0.0,0.0,98,0.00,,,0.14,weatherlink.com 1.10,2013-07-13 02:35:00,
2013-07-12 21:50:00,71.5,71.0,29.87,SE,125,0.0,0.0,98,0.00,,,0.14,weatherlink.com 1.10,2013-07-13 02:50:00,
2013-07-12 22:05:00,71.3,71.0,29.87,NNW,330,0.0,0.0,99,0.00,,,0.14,weatherlink.com 1.10,2013-07-13 03:05:00,
2013-07-12 22:20:00,71.1,71.0,29.87,West,270,0.0,1.0,99,0.00,,,0.14,weatherlink.com 1.10,2013-07-13 03:20:00,
2013-07-12 22:35:00,70.9,71.0,29.88,West,270,0.0,0.0,99,0.00,,,0.14,weatherlink.com 1.10,2013-07-13 03:35:00,
2013-07-12 22:50:00,70.9,71.0,29.88,West,270,0.0,0.0,99,0.00,,,0.14,weatherlink.com 1.10,2013-07-13 03:50:00,
2013-07-12 23:05:00,71.0,71.0,29.89,West,270,0.0,0.0,99,0.00,,,0.14,weatherlink.com 1.10,2013-07-13 04:05:00,
2013-07-12 23:20:00,70.8,71.0,29.88,West,271,0.0,0.0,99,0.00,,,0.14,weatherlink.com 1.10,2013-07-13 04:20:00,
2013-07-12 23:35:00,70.8,71.0,29.88,ENE,60,0.0,0.0,99,0.00,,,0.14,weatherlink.com 1.10,2013-07-13 04:35:00,
2013-07-12 23:50:00,71.1,71.0,29.89,ESE,113,0.0,0.0,99,0.00,,,0.14,weatherlink.com 1.10,2013-07-13 04:50:00,